"America/Chicago Time","Lifetime Energy (kWh)","Power (W)","AC Volts RMS (V) ","AC Amps RMS (mA)","Grid Frequency (Hz)","Inverter Temperature (C)"
"04/09/12 12:26:19","60.1125","91.9","215.48","446","60.03","14"
"04/09/12 12:31:20","60.1221","47.5","214.64","341","60.0","14"
"04/09/12 12:36:19","60.1259","47.1","214.01","318","60.03","13"
"04/09/12 12:41:19","60.1298","53.1","214.74","174","60.0","12"
"04/09/12 12:46:20","60.1336","55.7","214.53","269","60.0","12"
"04/09/12 12:51:21","60.1376","55.5","215.76","129","60.0","11"
"04/09/12 12:56:20","60.1414","53.5","215.88","329","60.03","11"
"04/09/12 13:01:19","60.1452","55.2","216.12","123","60.0","11"
"04/09/12 13:06:20","60.1491","51.9","215.38","342","60.0","11"
"04/09/12 13:11:20","60.1533","65.2","214.55","331","60.03","11"
"04/09/12 13:16:19","60.1572","50.4","214.12","161","60.03","10"
"04/09/12 13:21:19","60.1632","82.2","215.1","402","60.03","10"
"04/09/12 13:26:19","60.1689","48.7","214.37","302","60.0","10"
"04/09/12 13:31:19","60.1725","56.5","214.53","106","60.03","10"
"04/09/12 13:36:20","60.1764","62.2","215.18","337","60.03","10"
"04/09/12 13:41:20","60.1803","48.8","214.96","256","60.0","10"
"04/09/12 13:46:21","60.1836","61.5","214.35","410","60.0","9"
"04/09/12 13:51:19","60.1873","42.1","214.8","119","60.03","9"
"04/09/12 13:56:19","60.1901","39.5","215.39","137","60.03","9"
"04/09/12 14:01:19","60.1919","24.9","214.23","205","60.0","9"
"04/09/12 14:06:20","60.1936","30.2","214.08","47","60.0","9"
"04/09/12 14:11:20","60.1952","14.5","214.39","15","60.03","9"
"04/09/12 14:16:19","60.1961","12.3","214.12","52","60.0","8"
"04/09/12 14:21:20","60.1973","17.4","215.18","34","60.0","8"
"04/09/12 14:26:20","60.1982","15.0","213.95","10","59.96","8"
"04/09/12 14:31:21","60.1991","23.0","214.32","273","60.03","7"
"04/09/12 14:36:19","60.2014","48.1","214.85","160","60.03","8"
"04/09/12 14:41:20","60.2042","32.1","213.43","149","60.0","8"
"04/09/12 14:46:20","60.207","47.5","214.54","307","60.0","8"
"04/09/12 14:51:19","60.2106","48.3","214.97","339","60.03","8"
"04/09/12 14:56:20","60.217","101.1","215.82","486","60.03","9"
"04/09/12 15:01:20","60.2254","85.3","216.35","415","60.03","9"
"04/09/12 15:06:20","60.2327","86.4","215.53","423","60.03","9"
"04/09/12 15:11:20","60.2397","43.5","215.14","398","60.03","9"
"04/09/12 15:16:21","60.2458","83.9","216.56","407","60.03","9"
"04/09/12 15:21:20","60.2534","198.1","218.23","878","60.03","9"
"04/09/12 15:26:20","60.2607","45.0","214.39","350","60.0","9"
"04/09/12 15:31:21","60.2644","54.3","215.15","219","60.03","9"
"04/09/12 15:36:19","60.2709","74.0","215.85","366","60.0","9"
"04/09/12 15:41:19","60.2756","41.7","214.95","363","60.03","9"
"04/09/12 15:46:19","60.2784","44.5","214.86","207","60.03","9"
"04/09/12 15:51:19","60.2813","39.1","215.13","250","60.03","9"
"04/09/12 15:56:19","60.2843","35.1","214.37","225","60.0","9"
"04/09/12 16:01:20","60.2864","29.7","214.25","26","60.03","8"
"04/09/12 16:06:20","60.2888","27.8","214.35","75","60.03","8"
"04/09/12 16:11:20","60.2922","73.2","215.42","240","60.0","8"
"04/09/12 16:16:19","60.2956","20.7","214.19","172","60.03","8"
"04/09/12 16:21:20","60.2967","15.1","214.48","1","60.03","7"
"04/09/12 16:26:19","60.299","47.9","214.93","354","60.0","7"
"04/09/12 16:31:19","60.3027","47.7","214.24","122","60.03","7"
"04/09/12 16:36:20","60.3057","33.1","214.18","112","60.0","7"
"04/09/12 16:41:19","60.3087","42.4","213.57","155","60.0","7"
"04/09/12 16:46:19","60.3114","36.9","214.15","143","60.03","7"
"04/09/12 16:51:20","60.3139","27.4","214.57","141","60.03","7"
"04/09/12 16:56:20","60.3165","35.7","215.16","142","60.03","7"
"04/09/12 17:01:20","60.3202","48.0","215.64","339","60.07","7"
"04/09/12 17:06:19","60.3239","39.5","215.07","132","60.03","8"
"04/09/12 17:11:19","60.3272","38.4","215.11","169","60.03","8"
"04/09/12 17:16:20","60.33","45.1","214.07","281","60.03","8"
"04/09/12 17:21:20","60.3329","30.7","214.39","281","60.0","8"
"04/09/12 17:26:19","60.3353","16.3","213.91","40","60.03","8"
"04/09/12 17:31:20","60.3376","24.9","214.31","204","60.0","8"
"04/09/12 17:36:20","60.3395","25.9","213.97","105","60.03","8"
"04/09/12 17:41:20","60.3413","19.8","214.24","242","60.03","8"
"04/09/12 17:46:20","60.3429","29.0","213.22","119","60.03","8"
"04/09/12 17:51:19","60.3444","19.6","213.47","164","60.0","8"
"04/09/12 17:56:19","60.3455","15.6","213.11","44","60.0","7"
"04/09/12 18:01:19","60.3463","14.9","213.44","6","60.03","7"
"04/09/12 18:06:19","60.347","2.7","213.92","178","60.03","7"
"04/09/12 18:11:19","60.3481","12.5","213.38","113","60.0","7"
"04/09/12 18:16:21","60.349","7.1","213.76","0","60.03","7"
"04/09/12 18:21:20","60.3495","0.0","213.75","0","60.03","6"
"04/09/12 18:26:19","60.3501","2.3","213.36","0","60.0","6"
"04/09/12 18:31:20","60.3505","0.0","212.81","0","60.03","6"
"04/09/12 18:36:19","60.3508","0.0","212.7","151","60.03","6"
"04/09/12 18:41:19","60.351","0.0","213.42","0","60.03","6"
"04/10/12 06:36:20","60.3512","0.0","213.59","0","60.03","2"
"04/10/12 06:41:24","60.3514","0.0","213.51","0","60.03","2"
"04/10/12 06:46:21","60.3518","0.0","213.54","0","60.03","3"
"04/10/12 06:51:21","60.3524","6.1","213.52","237","60.03","3"
"04/10/12 06:56:20","60.3532","13.2","213.45","10","60.03","3"
"04/10/12 07:01:20","60.3543","13.2","212.86","10","60.0","4"
"04/10/12 07:06:19","60.3556","25.8","211.8","107","60.0","4"
"04/10/12 07:11:19","60.3573","17.2","213.47","108","60.03","4"
"04/10/12 07:16:21","60.3594","33.0","213.39","156","60.03","5"
"04/10/12 07:21:20","60.3618","36.5","213.61","279","60.0","5"
"04/10/12 07:26:19","60.3646","43.7","213.44","291","60.0","5"
"04/10/12 07:31:20","60.3678","37.3","213.02","200","60.03","6"
"04/10/12 07:36:20","60.3714","43.4","212.85","175","60.03","6"
"04/10/12 07:41:21","60.3753","58.1","213.46","81","60.03","6"
"04/10/12 07:46:19","60.3792","50.3","213.37","139","60.07","6"
"04/10/12 07:51:20","60.3831","39.6","214.61","245","60.0","6"
"04/10/12 07:56:20","60.3869","56.9","214.49","263","60.03","6"
"04/10/12 08:01:20","60.3908","47.3","214.36","309","60.0","6"
"04/10/12 08:06:21","60.3948","60.1","214.44","358","60.03","7"
"04/10/12 08:11:20","60.3991","45.7","214.54","429","60.07","7"
"04/10/12 08:16:21","60.4036","48.5","213.88","445","60.03","7"
"04/10/12 08:21:21","60.4105","98.1","214.59","473","60.07","8"
"04/10/12 08:26:19","60.4183","104.3","215.15","497","60.03","8"
"04/10/12 08:31:20","60.4266","109.3","214.66","522","60.03","8"
"04/10/12 08:36:21","60.4353","114.2","215.27","543","60.03","9"
"04/10/12 08:41:20","60.4444","118.9","215.39","566","60.0","9"
"04/10/12 08:46:20","60.4537","118.0","214.71","558","60.03","9"
"04/10/12 08:51:20","60.4631","128.6","215.1","605","60.03","9"
"04/10/12 08:56:20","60.4733","133.0","215.71","624","60.03","9"
"04/10/12 09:01:20","60.4836","137.2","215.52","640","59.96","10"
"04/10/12 09:06:19","60.4942","140.1","215.62","654","60.03","10"
"04/10/12 09:11:20","60.5042","129.0","215.31","609","60.03","11"
"04/10/12 09:16:21","60.5145","131.8","215.85","618","60.07","11"
"04/10/12 09:21:21","60.5251","139.9","215.6","655","60.0","10"
"04/10/12 09:26:21","60.5368","156.0","216.3","720","60.0","11"
"04/10/12 09:31:20","60.5494","164.7","217.01","752","60.03","11"
"04/10/12 09:36:20","60.5622","168.9","217.48","762","60.03","11"
"04/10/12 09:41:20","60.5724","61.6","214.9","316","60.03","11"
"04/10/12 09:46:20","60.5763","42.0","213.94","425","60.03","10"
"04/10/12 09:51:20","60.5802","54.6","214.85","219","60.03","10"
"04/10/12 09:56:21","60.584","55.4","213.64","287","60.03","9"
"04/10/12 10:01:19","60.5879","48.5","213.78","385","60.0","9"
"04/10/12 10:06:21","60.5918","45.3","213.29","392","60.03","9"
"04/10/12 10:11:19","60.5957","48.0","214.74","366","60.0","9"
"04/10/12 10:16:20","60.5996","58.4","214.28","200","60.03","9"
"04/10/12 10:21:20","60.6035","49.9","213.76","195","60.0","9"
"04/10/12 10:26:20","60.6075","55.5","214.63","112","60.0","9"
"04/10/12 10:31:20","60.6119","45.0","215.38","440","60.0","9"
"04/10/12 10:36:19","60.616","47.0","214.18","266","60.0","9"
"04/10/12 10:41:20","60.6201","66.1","214.68","346","60.03","9"
"04/10/12 10:46:20","60.6242","63.5","214.19","98","60.03","9"
"04/10/12 10:51:20","60.6286","42.2","215.03","226","60.03","9"
"04/10/12 10:56:21","60.6328","44.7","214.78","349","60.03","9"
"04/10/12 11:01:21","60.6367","39.1","216.07","178","60.0","9"
"04/10/12 11:06:20","60.6404","58.4","215.16","74","60.0","9"
"04/10/12 11:11:20","60.6444","49.6","214.97","289","60.0","9"
"04/10/12 11:16:21","60.6482","48.3","215.0","359","60.03","9"
"04/10/12 11:21:20","60.652","59.0","214.97","281","60.03","9"
"04/10/12 11:26:21","60.6558","42.7","215.29","350","60.03","9"
"04/10/12 11:31:21","60.6596","44.3","213.65","294","60.03","9"
"04/10/12 11:36:20","60.6635","56.8","214.38","418","60.07","9"
"04/10/12 11:41:21","60.6714","128.0","214.8","605","60.03","9"
"04/10/12 11:46:20","60.6828","186.4","216.36","849","60.03","9"
"04/10/12 11:51:20","60.6981","197.8","216.37","896","60.03","11"
"04/10/12 11:56:21","60.7133","196.8","217.08","881","60.07","12"
"04/10/12 12:01:20","60.7277","194.6","216.24","881","60.03","13"
"04/10/12 12:06:21","60.7427","197.3","216.89","888","60.0","13"
"04/10/12 12:11:21","60.7574","179.7","216.12","823","60.0","14"
"04/10/12 12:16:20","60.7722","189.6","216.66","860","60.0","14"
"04/10/12 12:21:20","60.7836","105.8","214.19","511","60.03","13"
"04/10/12 12:26:20","60.7951","163.4","216.01","753","60.03","14"
"04/10/12 12:31:20","60.8031","71.4","213.71","362","60.03","13"
"04/10/12 12:36:20","60.8086","73.2","214.33","368","60.0","11"
"04/10/12 12:41:20","60.8143","62.4","214.14","319","60.03","11"
"04/10/12 12:46:20","60.818","38.5","213.94","103","60.03","10"
"04/10/12 12:51:19","60.8218","58.1","213.62","271","60.03","9"
"04/10/12 12:56:20","60.8257","58.1","213.23","80","60.03","9"
"04/10/12 13:01:20","60.8296","51.5","215.16","383","60.0","9"
"04/10/12 13:06:20","60.8338","51.4","215.63","379","60.03","9"
"04/10/12 13:11:20","60.8402","86.1","214.91","420","60.03","9"
"04/10/12 13:16:21","60.8486","116.5","216.12","546","60.03","9"
"04/10/12 13:21:20","60.8567","97.9","215.05","469","60.0","9"
"04/10/12 13:26:20","60.8644","98.3","215.53","475","60.03","9"
"04/10/12 13:31:20","60.8745","176.8","218.33","805","60.03","10"
"04/10/12 13:36:19","60.8868","138.5","217.0","642","60.0","10"
"04/10/12 13:41:20","60.8959","111.6","216.78","530","60.07","10"
"04/10/12 13:46:21","60.9098","173.0","217.72","792","60.03","11"
"04/10/12 13:51:19","60.9244","195.2","217.85","891","60.03","12"
"04/10/12 13:56:21","60.9387","189.1","218.41","849","60.03","13"
"04/10/12 14:01:21","60.9485","104.0","216.24","494","60.03","12"
"04/10/12 14:06:20","60.9576","95.8","215.27","463","60.03","12"
"04/10/12 14:11:21","60.9683","129.2","216.13","604","60.03","12"
"04/10/12 14:16:21","60.9777","105.0","216.43","501","60.03","12"
"04/10/12 14:21:20","60.9876","160.8","216.73","735","60.03","12"
"04/10/12 14:26:20","60.9974","122.4","216.29","576","60.03","11"
"04/10/12 14:31:20","61.0072","158.5","216.83","726","60.0","12"
"04/10/12 14:36:21","61.0177","137.2","216.77","638","60.03","12"
"04/10/12 14:41:21","61.0277","126.4","216.24","593","60.03","12"
"04/10/12 14:46:19","61.0386","147.9","217.27","684","60.03","12"
"04/10/12 14:51:20","61.0498","191.4","217.38","874","60.03","13"
"04/10/12 14:56:21","61.0643","197.4","218.36","890","60.03","13"
"04/10/12 15:01:20","61.0795","197.0","217.34","888","60.03","14"
"04/10/12 15:06:21","61.0942","192.9","217.73","871","60.0","15"
"04/10/12 15:11:21","61.1084","179.5","217.32","817","60.03","15"
"04/10/12 15:16:20","61.122","175.0","217.08","797","60.03","15"
"04/10/12 15:21:20","61.1356","172.9","218.23","782","60.03","15"
"04/10/12 15:26:20","61.1488","169.2","217.81","769","60.0","15"
"04/10/12 15:31:20","61.1619","160.5","217.02","739","60.07","15"
"04/10/12 15:36:21","61.174","139.3","216.69","647","60.0","15"
"04/10/12 15:41:20","61.1859","155.2","217.05","714","60.07","14"
"04/10/12 15:46:21","61.1976","153.8","216.88","708","60.0","14"
"04/10/12 15:51:21","61.2096","149.8","216.87","695","60.0","14"
"04/10/12 15:56:20","61.221","147.1","217.0","682","60.07","14"
"04/10/12 16:01:21","61.2323","138.6","217.08","643","60.03","13"
"04/10/12 16:06:19","61.2424","126.0","216.07","587","60.0","13"
"04/10/12 16:11:20","61.2526","135.7","216.71","631","60.03","13"
"04/10/12 16:16:21","61.2626","92.1","215.87","449","59.96","13"
"04/10/12 16:21:20","61.2719","123.6","216.41","580","60.0","13"
"04/10/12 16:26:20","61.2813","118.0","216.4","557","60.03","13"
"04/10/12 16:31:21","61.2903","113.6","216.17","539","60.03","13"
"04/10/12 16:36:20","61.2986","102.2","215.96","491","60.0","12"
"04/10/12 16:41:21","61.3062","100.2","216.15","477","60.03","12"
"04/10/12 16:46:20","61.3137","98.6","214.93","473","60.03","11"
"04/10/12 16:51:21","61.3212","94.3","216.17","452","60.0","11"
"04/10/12 16:56:21","61.3284","88.5","215.96","430","60.03","11"
"04/10/12 17:01:20","61.335","83.6","215.52","407","60.07","11"
"04/10/12 17:06:20","61.3412","77.8","214.92","389","60.07","11"
"04/10/12 17:11:20","61.3471","72.9","215.52","364","60.03","11"
"04/10/12 17:16:20","61.3525","67.4","215.62","340","60.03","10"
"04/10/12 17:21:19","61.3576","61.7","214.77","318","60.0","10"
"04/10/12 17:26:20","61.3616","54.9","215.46","79","60.03","10"
"04/10/12 17:31:21","61.3655","57.4","215.19","142","60.03","10"
"04/10/12 17:36:19","61.3692","53.4","213.39","367","60.0","10"
"04/10/12 17:41:20","61.3726","47.3","214.78","158","60.03","10"
"04/10/12 17:46:21","61.3756","41.5","215.68","300","60.03","9"
"04/10/12 17:51:21","61.3782","36.3","214.25","233","60.03","9"
"04/10/12 17:56:20","61.3805","31.2","214.42","207","60.07","9"
"04/10/12 18:01:20","61.3824","29.6","214.31","47","60.03","9"
"04/10/12 18:06:21","61.384","19.7","214.8","125","60.03","9"
"04/10/12 18:11:20","61.3854","15.7","214.14","29","60.03","9"
"04/10/12 18:16:20","61.3864","8.0","213.61","168","60.03","9"
"04/10/12 18:21:21","61.3872","7.0","213.77","242","60.0","9"
"04/10/12 18:26:21","61.3879","10.2","213.57","0","60.07","9"
"04/10/12 18:31:20","61.3884","0.0","214.06","0","60.0","9"
"04/10/12 18:36:20","61.3887","0.0","214.39","0","60.03","8"
"04/10/12 18:41:21","61.3888","0.0","214.22","0","60.0","8"
"04/10/12 18:46:20","61.3888","0.0","213.88","0","60.0","8"
"04/10/12 19:01:21","61.3891","0.0","214.49","0","60.0","7"
"04/11/12 06:41:22","61.3898","12.7","212.82","1","60.07","4"
"04/11/12 06:46:21","61.3905","15.1","213.54","33","60.0","4"
"04/11/12 06:51:21","61.3914","11.0","212.67","1","60.03","4"
"04/11/12 06:56:20","61.3926","15.7","212.13","12","60.0","4"
"04/11/12 07:01:20","61.3941","14.9","212.01","142","60.0","5"
"04/11/12 07:06:20","61.3958","34.9","212.92","56","60.03","5"
"04/11/12 07:11:20","61.3977","27.2","213.72","137","60.03","6"
"04/11/12 07:16:21","61.4","27.1","213.39","80","60.03","6"
"04/11/12 07:21:21","61.4025","30.2","213.19","193","60.03","6"
"04/11/12 07:26:22","61.4054","35.4","212.23","187","60.03","6"
"04/11/12 07:31:20","61.4086","39.7","213.6","120","60.03","6"
"04/11/12 07:36:21","61.4123","45.6","214.19","402","60.03","6"
"04/11/12 07:41:21","61.4162","45.7","214.46","100","60.03","6"
"04/11/12 07:46:22","61.4201","57.5","214.09","131","60.07","7"
"04/11/12 07:51:20","61.4239","45.6","213.97","358","60.03","7"
"04/11/12 07:56:20","61.4278","41.4","214.0","416","60.0","7"
"04/11/12 08:01:21","61.4317","67.1","214.85","220","60.0","8"
"04/11/12 08:06:20","61.4372","91.6","214.93","447","60.03","8"
"04/11/12 08:11:20","61.4444","58.7","214.76","96","60.03","8"
"04/11/12 08:16:20","61.4507","109.6","214.94","523","60.03","9"
"04/11/12 08:21:21","61.4587","118.5","215.1","560","60.0","9"
"04/11/12 08:26:21","61.468","105.7","216.1","505","60.03","9"
"04/11/12 08:31:21","61.4738","41.6","213.15","152","60.0","9"
"04/11/12 08:36:20","61.4776","47.0","213.64","178","60.03","9"
"04/11/12 08:41:21","61.481","41.6","213.08","146","60.03","9"
"04/11/12 08:46:21","61.4848","38.8","214.62","103","60.0","9"
"04/11/12 08:51:21","61.4879","35.2","213.8","100","60.0","9"
"04/11/12 08:56:21","61.4903","25.3","214.33","74","60.03","9"
"04/11/12 09:01:21","61.4927","31.3","214.44","213","60.0","9"
"04/11/12 09:06:20","61.4962","45.5","214.78","143","60.03","9"
"04/11/12 09:11:20","61.4988","21.5","214.03","274","60.03","9"
"04/11/12 09:16:20","61.501","27.1","213.68","260","60.03","9"
"04/11/12 09:21:21","61.5039","34.6","214.4","226","60.0","9"
"04/11/12 09:26:21","61.5074","56.4","214.33","150","60.03","9"
"04/11/12 09:31:21","61.5113","51.7","215.47","98","60.03","9"
"04/11/12 09:36:21","61.5149","46.7","215.54","265","60.03","9"
"04/11/12 09:41:21","61.5188","53.5","215.96","251","60.03","9"
"04/11/12 09:46:21","61.5227","42.5","214.15","402","60.0","9"
"04/11/12 09:51:21","61.5265","49.2","213.68","353","60.03","9"
"04/11/12 09:56:20","61.5303","40.6","214.05","308","60.03","9"
"04/11/12 10:01:20","61.5341","48.8","214.86","347","60.03","10"
"04/11/12 10:06:21","61.538","41.8","213.92","423","60.03","10"
"04/11/12 10:11:21","61.5419","55.7","213.59","289","60.03","10"
"04/11/12 10:16:20","61.5458","54.3","214.61","361","60.07","10"
"04/11/12 10:21:20","61.5496","56.7","214.1","374","60.0","10"
"04/11/12 10:26:21","61.5535","51.7","215.01","134","60.03","11"
"04/11/12 10:31:20","61.5574","47.4","214.96","400","60.03","11"
"04/11/12 10:36:20","61.5612","48.5","215.43","384","60.03","11"
"04/11/12 10:41:21","61.5651","54.8","215.35","99","60.0","11"
"04/11/12 10:46:22","61.5689","56.1","214.55","338","60.0","11"
"04/11/12 10:51:20","61.5739","112.9","216.24","533","60.0","11"
"04/11/12 10:56:21","61.5807","80.0","215.07","398","60.03","11"
"04/11/12 11:01:21","61.5864","67.9","215.4","339","60.03","11"
"04/11/12 11:06:20","61.5927","82.0","215.31","406","60.07","11"
"04/11/12 11:11:21","61.6006","106.8","217.05","504","60.03","12"
"04/11/12 11:16:21","61.6075","78.9","215.73","384","60.03","12"
"04/11/12 11:21:21","61.6142","94.5","215.66","457","60.03","12"
"04/11/12 11:26:21","61.6228","104.1","216.51","496","60.03","13"
"04/11/12 11:31:21","61.6307","197.5","217.62","890","60.03","13"
"04/11/12 11:36:21","61.6396","80.4","215.59","392","60.03","13"
"04/11/12 11:41:20","61.6454","76.0","215.61","377","60.03","13"
"04/11/12 11:46:21","61.6528","105.1","216.59","499","60.03","13"
"04/11/12 11:51:21","61.6606","98.4","217.34","470","60.0","13"
"04/11/12 11:56:22","61.6681","84.2","215.54","412","60.03","13"
"04/11/12 12:01:22","61.6749","105.5","215.65","507","60.03","13"
"04/11/12 12:06:20","61.6824","88.6","216.02","433","60.07","13"
"04/11/12 12:11:21","61.6888","89.8","215.46","439","60.0","12"
"04/11/12 12:16:21","61.6969","106.8","215.96","509","60.0","13"
"04/11/12 12:21:22","61.7056","94.9","216.78","458","60.07","13"
"04/11/12 12:26:20","61.7132","99.6","215.52","479","60.03","13"
"04/11/12 12:31:20","61.7195","77.3","215.13","381","60.03","13"
"04/11/12 12:36:21","61.7278","81.8","215.46","395","60.0","13"
"04/11/12 12:41:20","61.7367","112.4","216.03","534","60.07","13"
"04/11/12 12:46:21","61.7434","88.0","216.03","428","60.03","13"
"04/11/12 12:51:22","61.7516","104.3","215.6","498","60.0","13"
"04/11/12 12:56:22","61.7589","92.5","215.2","446","60.03","13"
"04/11/12 13:01:21","61.7656","86.3","215.59","420","60.0","13"
"04/11/12 13:06:20","61.7723","94.5","216.53","456","60.0","13"
"04/11/12 13:11:21","61.7792","81.9","215.64","401","60.03","13"
"04/11/12 13:16:21","61.7853","76.6","214.74","384","60.03","13"
"04/11/12 13:21:20","61.7918","85.0","215.58","416","60.03","13"
"04/11/12 13:26:21","61.7982","75.9","215.71","377","60.0","13"
"04/11/12 13:31:22","61.8052","96.4","216.42","464","60.03","13"
"04/11/12 13:36:21","61.8132","121.5","216.61","569","60.03","13"
"04/11/12 13:41:21","61.8216","90.6","215.67","441","60.03","13"
"04/11/12 13:46:20","61.8285","84.1","215.41","416","60.03","13"
"04/11/12 13:51:21","61.8358","91.8","216.5","441","60.03","13"
"04/11/12 13:56:21","61.8424","80.9","215.21","399","60.03","13"
"04/11/12 14:01:21","61.8485","76.6","214.66","377","60.03","13"
"04/11/12 14:06:21","61.8548","85.4","215.23","418","60.03","13"
"04/11/12 14:11:22","61.8607","68.2","214.99","342","60.0","13"
"04/11/12 14:16:21","61.8661","72.4","215.09","362","60.03","13"
"04/11/12 14:21:21","61.872","77.1","215.71","383","60.03","13"
"04/11/12 14:26:20","61.8779","76.5","215.82","375","60.03","13"
"04/11/12 14:31:21","61.8839","77.5","216.22","380","60.03","13"
"04/11/12 14:36:20","61.89","75.6","215.4","373","60.03","13"
"04/11/12 14:41:21","61.8955","67.5","215.54","342","60.03","13"
"04/11/12 14:46:21","61.9011","78.2","215.24","385","60.03","12"
"04/11/12 14:51:20","61.9071","76.9","215.74","379","60.07","13"
"04/11/12 14:56:22","61.9129","72.6","214.5","361","60.03","12"
"04/11/12 15:01:20","61.9186","75.4","215.51","374","60.0","12"
"04/11/12 15:06:21","61.9247","77.3","215.98","382","60.03","12"
"04/11/12 15:11:20","61.9313","87.2","215.86","424","60.0","12"
"04/11/12 15:21:20","61.9446","86.5","215.61","422","60.0","12"
"04/11/12 15:26:20","61.9514","80.0","215.41","396","60.07","13"
"04/11/12 15:31:21","61.9589","92.6","216.36","445","60.03","13"
"04/11/12 15:36:21","61.9652","68.4","214.83","346","60.03","13"
"04/11/12 15:41:20","61.9723","85.5","215.71","415","60.0","13"
"04/11/12 15:46:21","61.9821","192.0","217.89","869","60.03","13"
"04/11/12 15:51:20","61.9889","44.8","215.08","234","60.0","13"
"04/11/12 15:56:21","61.9928","52.1","215.17","376","60.07","13"
"04/11/12 16:01:20","62.0018","129.7","217.11","606","60.03","13"
"04/11/12 16:11:21","62.021","130.8","215.77","614","60.03","14"
"04/11/12 16:16:22","62.0304","125.9","215.49","595","60.0","15"
"04/11/12 16:21:20","62.0398","120.1","216.35","560","60.0","15"
"04/11/12 16:26:20","62.049","115.4","216.32","547","60.03","15"
"04/11/12 16:31:20","62.0577","110.9","215.46","528","60.0","15"
"04/11/12 16:36:22","62.0663","106.4","214.66","512","60.0","15"
"04/11/12 16:41:21","62.0744","101.4","214.64","487","60.03","15"
"04/11/12 16:46:22","62.0821","97.3","214.71","468","60.03","15"
"04/11/12 16:51:21","62.0894","92.5","213.97","448","60.03","15"
"04/11/12 16:56:21","62.0964","86.7","214.43","425","60.03","15"
"04/11/12 17:01:21","62.103","81.9","214.99","404","60.07","15"
"04/11/12 17:06:21","62.1091","76.8","214.42","383","60.03","15"
"04/11/12 17:11:21","62.1149","71.6","214.75","359","60.03","15"
"04/11/12 17:16:20","62.1203","66.5","214.12","339","60.03","15"
"04/11/12 17:21:21","62.1252","63.8","214.39","417","60.03","15"
"04/11/12 17:26:21","62.1291","44.3","214.86","165","60.03","15"
"04/11/12 17:31:21","62.1329","54.2","214.14","343","60.03","14"
"04/11/12 17:36:22","62.1367","51.4","213.95","370","60.03","14"
"04/11/12 17:41:20","62.14","35.2","213.78","341","60.03","13"
"04/11/12 17:46:21","62.1431","42.0","213.4","136","60.0","13"
"04/11/12 17:51:21","62.1458","28.7","214.36","115","60.0","13"
"04/11/12 17:56:21","62.1481","25.3","214.38","168","60.03","13"
"04/11/12 18:01:20","62.1501","23.6","214.1","79","60.03","13"
"04/11/12 18:06:20","62.1518","20.2","214.16","25","60.0","12"
"04/11/12 18:11:22","62.1531","15.9","213.89","12","60.03","12"
"04/11/12 18:16:21","62.1542","7.5","213.63","202","60.03","11"
"04/11/12 18:21:20","62.155","0.0","214.07","1","60.07","11"
"04/11/12 18:26:21","62.1557","14.1","213.72","2","60.03","11"
"04/11/12 18:31:21","62.1562","0.0","213.57","0","60.03","11"
"04/11/12 18:36:22","62.1566","10.2","213.87","0","60.0","10"
"04/11/12 18:41:21","62.1569","0.0","213.49","0","60.03","10"
"04/11/12 18:46:21","62.1572","10.6","212.71","118","60.03","9"
"04/11/12 18:51:21","62.1574","0.0","213.3","0","60.03","9"
"04/11/12 19:01:20","62.1576","0.0","213.68","0","60.03","8"
"04/12/12 06:51:21","62.1587","5.0","213.75","126","60.03","1"
"04/12/12 06:56:20","62.1597","14.1","213.88","28","60.03","1"